This is the latest recevied weather packets stored in our database for station/object UB2FAY-13. If no packets are shown the sender has not sent any weather packets the latest 10 day(s).
| Time | Temp. | Humidity | Pressure | Rain* | Wind** | Luminosity | Snow |
|---|---|---|---|---|---|---|---|
| 1777280225 | 8.89° C | 42% | 1021.2 hPa | 0 mm | - | - | - |
| 1777279625 | 8.33° C | 43% | 1021.1 hPa | 0 mm | - | - | - |
| 1777279025 | 8.33° C | 44% | 1021 hPa | 0 mm | - | - | - |
| 1777277225 | 8.89° C | 45% | 1020.8 hPa | 0 mm | - | - | - |
| 1777275425 | 7.78° C | 52% | 1020.7 hPa | 0 mm | - | - | - |
| 1777274867 | 7.78° C | 54% | 1020.8 hPa | 0 mm | - | - | - |
| 1777274825 | 7.78° C | 54% | 1020.8 hPa | 0 mm | - | - | - |
| 1777274225 | 7.78° C | 54% | 1020.8 hPa | 0 mm | - | - | - |
| 1777271825 | 6.67° C | 57% | 1020.6 hPa | 0 mm | - | - | - |
| 1777271225 | 7.22° C | 56% | 1020.6 hPa | 0 mm | - | - | - |
| 1777270625 | 7.22° C | 56% | 1020.5 hPa | 0 mm | - | - | - |
| 1777269425 | 7.22° C | 56% | 1020.4 hPa | 0 mm | - | - | - |
| 1777268825 | 7.78° C | 55% | 1020.3 hPa | 0 mm | - | - | - |
| 1777267625 | 8.33° C | 56% | 1020.3 hPa | 0 mm | - | - | - |
| 1777265825 | 7.78° C | 61% | 1020.2 hPa | 0 mm | - | - | - |
| 1777265225 | 8.33° C | 62% | 1020.2 hPa | 0 mm | - | - | - |
| 1777264625 | 8.89° C | 66% | 1020.1 hPa | 0 mm | - | - | - |
| 1777264025 | 8.89° C | 69% | 1020.2 hPa | 0 mm | - | - | - |
| 1777263425 | 7.78° C | 73% | 1020 hPa | 0 mm | - | - | - |
| 1777262825 | 6.67° C | 74% | 1019.9 hPa | 0 mm | - | - | - |
| 1777262225 | 6.11° C | 77% | 1019.7 hPa | 0 mm | - | - | - |
| 1777261625 | 5° C | 79% | 1019.7 hPa | 0 mm | - | - | - |
| 1777261025 | 4.44° C | 80% | 1019.7 hPa | 0 mm | - | - | - |
| 1777260425 | 3.89° C | 79% | 1019.8 hPa | 0 mm | - | - | - |
| 1777259825 | 3.89° C | 79% | 1019.6 hPa | 0 mm | - | - | - |
* Rain latest hour (hover to see other rain measurements)
** Current wind speed in m/s (hover to see current wind gust speed)